KC0VVH Weather Reports


time (UTC)temp
C
wind
direction
speed
KPH
gust
KPH
rain 1hr
cm
rain 24hr
cm
rain mn
cm
humidity
%
barometer
mb
20260502235403 24 1 4.8 19.3 0.00 0.00 0.00 15 1017.9
20260502234503 23 326 4.8 19.3 0.00 0.00 0.00 15 1017.9
20260502233624 24 337 4.8 19.3 0.00 0.00 0.00 14 1017.9
20260502232703 24 310 4.8 19.3 0.00 0.00 0.00 13 1017.9
20260502231803 24 353 3.2 17.7 0.00 0.00 0.00 13 1017.9
20260502230903 24 22 1.6 17.7 0.00 0.00 0.00 14 1017.9
20260502230024 24 359 4.8 20.9 0.00 0.00 0.00 14 1017.9
20260502225403 24 12 8.0 20.9 0.00 0.00 0.00 14 1017.9
20260502224503 24 12 8.0 19.3 0.00 0.00 0.00 14 1017.9
20260502223603 23 14 6.4 17.7 0.00 0.00 0.00 15 1017.9
20260502222703 23 11 6.4 19.3 0.00 0.00 0.00 15 1017.9
20260502221803 23 22 6.4 16.1 0.00 0.00 0.00 15 1017.9
20260502220903 23 19 3.2 14.5 0.00 0.00 0.00 14 1017.9
20260502220024 23 18 4.8 20.9 0.00 0.00 0.00 15 1017.9
20260502215403 23 16 6.4 20.9 0.00 0.00 0.00 14 1017.9
20260502214524 23 16 8.0 19.3 0.00 0.00 0.00 14 1017.9
20260502213603 23 20 6.4 19.3 0.00 0.00 0.00 14 1017.9
20260502212703 23 36 9.7 30.6 0.00 0.00 0.00 15 1017.9
20260502211803 24 9 8.0 19.3 0.00 0.00 0.00 15 1017.9
20260502210903 23 21 6.4 19.3 0.00 0.00 0.00 16 1017.9
20260502210003 23 54 8.0 19.3 0.00 0.00 0.00 16 1017.9
20260502205424 23 55 8.0 16.1 0.00 0.00 0.00 16 1017.9
20260502204503 23 19 3.2 14.5 0.00 0.00 0.00 16 1017.9
20260502203603 22 43 6.4 16.1 0.00 0.00 0.00 18 1017.9
20260502202724 22 44 8.0 16.1 0.00 0.00 0.00 19 1017.9
20260502201803 22 25 6.4 19.3 0.00 0.00 0.00 20 1017.9
20260502200903 22 44 4.8 12.9 0.00 0.00 0.00 19 1017.9
20260502200003 22 43 6.4 16.1 0.00 0.00 0.00 19 1017.9
20260502195403 21 46 6.4 17.7 0.00 0.00 0.00 19 1017.9
20260502194503 22 20 6.4 17.7 0.00 0.00 0.00 20 1017.9
20260502193624 21 24 4.8 17.7 0.00 0.00 0.00 20 1017.9
20260502192703 21 16 6.4 17.7 0.00 0.00 0.00 18 1017.9
20260502191803 21 14 4.8 16.1 0.00 0.00 0.00 19 1017.9
20260502190903 21 10 4.8 16.1 0.00 0.00 0.00 21 1017.9
20260502190003 21 9 4.8 14.5 0.00 0.00 0.00 21 1017.9
20260502185403 21 359 4.8 14.5 0.00 0.00 0.00 19 1017.9
20260502184503 21 26 6.4 16.1 0.00 0.00 0.00 21 1017.9
20260502183603 20 16 6.4 17.7 0.00 0.00 0.00 21 1017.9
20260502182703 20 42 6.4 16.1 0.00 0.00 0.00 22 1017.9
20260502181803 20 31 4.8 14.5 0.00 0.00 0.00 23 1017.9
20260502180903 20 24 4.8 17.7 0.00 0.00 0.00 23 1017.9
20260502163603 16 152 1.6 11.3 0.00 0.00 0.00 29 1017.9
20260502162703 16 163 1.6 11.3 0.00 0.00 0.00 30 1017.9
20260502161803 15 195 4.8 16.1 0.00 0.00 0.00 30 1017.9
20260502160903 15 196 3.2 19.3 0.00 0.00 0.00 31 1017.9
20260502151803 13 180 8.0 20.9 0.00 0.00 0.00 33 1017.9
20260502150903 12 190 6.4 20.9 0.00 0.00 0.00 33 1017.9
20260502123603 10 204 3.2 12.9 0.00 0.00 0.00 37 1014.5
20260502122703 10 204 4.8 14.5 0.00 0.00 0.00 37 1014.5
20260502121803 10 207 4.8 11.3 0.00 0.00 0.00 37 1014.5
20260502120903 10 206 3.2 11.3 0.00 0.00 0.00 36 1014.5
20260502115403 8 204 4.8 16.1 0.00 0.00 0.00 35 1014.5
20260502114503 7 175 1.6 14.5 0.00 0.00 0.00 36 1014.5
20260502113603 7 13 0.0 4.8 0.00 0.00 0.00 35 1014.5
20260502112703 6 0 0.0 1.6 0.00 0.00 0.00 35 1014.5
20260502111803 6 0 0.0 0.0 0.00 0.00 0.00 36 1014.5
20260502110903 6 0 0.0 0.0 0.00 0.00 0.00 37 1014.5
20260502110024 7 0 0.0 0.0 0.00 0.00 0.00 36 1014.5
20260502105403 8 0 0.0 0.0 0.00 0.00 0.00 34 1014.5
20260502104503 8 13 1.6 6.4 0.00 0.00 0.00 30 1014.5
20260502103603 8 13 1.6 6.4 0.00 0.00 0.00 30 1014.5
20260502102703 8 0 0.0 0.0 0.00 0.00 0.00 30 1014.5
20260502101803 9 0 0.0 0.0 0.00 0.00 0.00 29 1014.5
20260502100903 9 13 0.0 4.8 0.00 0.00 0.00 28 1014.5
20260502090903 10 13 0.0 3.2 0.00 0.00 0.00 30 1014.5
20260502070903 12 0 0.0 0.0 0.00 0.00 0.00 23 1014.5
20260502070003 13 13 0.0 6.4 0.00 0.00 0.00 21 1014.5
20260502065403 13 13 1.6 8.0 0.00 0.00 0.00 21 1014.5
20260502064503 13 13 3.2 8.0 0.00 0.00 0.00 21 1014.5
20260502063603 13 13 0.0 3.2 0.00 0.00 0.00 21 1014.5
20260502062724 13 0 0.0 0.0 0.00 0.00 0.00 21 1014.5
20260502061803 13 13 3.2 8.0 0.00 0.00 0.00 21 1014.5
20260502060903 13 13 0.0 6.4 0.00 0.00 0.00 20 1014.5
20260502060003 13 0 0.0 0.0 0.00 0.00 0.00 20 1014.5
20260502055403 13 13 0.0 6.4 0.00 0.00 0.00 20 1014.5
20260502054503 13 0 0.0 1.6 0.00 0.00 0.00 20 1014.5
20260502053624 13 0 0.0 1.6 0.00 0.00 0.00 21 1014.5
20260502052703 13 0 0.0 0.0 0.00 0.00 0.00 19 1014.5
20260502051824 14 13 0.0 1.6 0.00 0.00 0.00 19 1014.5
20260502050903 14 13 0.0 4.8 0.00 0.00 0.00 19 1014.5
20260502050003 15 13 0.0 4.8 0.00 0.00 0.00 19 1014.5
20260502045403 15 13 0.0 3.2 0.00 0.00 0.00 18 1014.5
20260502044504 15 13 0.0 6.4 0.00 0.00 0.00 18 1014.5
20260502043603 15 13 0.0 4.8 0.00 0.00 0.00 18 1014.5
20260502042703 15 13 0.0 3.2 0.00 0.00 0.00 18 1014.5
20260502041803 15 13 0.0 6.4 0.00 0.00 0.00 18 1014.5
20260502040903 15 0 0.0 1.6 0.00 0.00 0.00 18 1014.5
20260502040003 14 13 0.0 1.6 0.00 0.00 0.00 18 1014.5
20260502033603 14 13 0.0 4.8 0.00 0.00 0.00 20 1003.1
20260502032703 14 13 0.0 8.0 0.00 0.00 0.00 20 1003.1
20260502031803 14 0 0.0 0.0 0.00 0.00 0.00 21 1003.1
20260502030903 15 0 0.0 0.0 0.00 0.00 0.00 21 1003.1
20260502030024 15 0 0.0 0.0 0.00 0.00 0.00 20 1003.1
20260502025403 15 0 0.0 0.0 0.00 0.00 0.00 21 1003.1
20260502024524 15 13 0.0 8.0 0.00 0.00 0.00 20 1003.1
20260502023603 15 0 0.0 0.0 0.00 0.00 0.00 21 1003.1
20260502022703 15 0 0.0 0.0 0.00 0.00 0.00 20 1003.1
20260502021803 16 0 0.0 0.0 0.00 0.00 0.00 19 1003.1
20260502020924 16 0 0.0 0.0 0.00 0.00 0.00 19 1003.1
20260502020003 16 13 0.0 8.0 0.00 0.00 0.00 18 1003.1
20260502015403 17 13 1.6 12.9 0.00 0.00 0.00 18 1003.1
20260502014503 17 15 4.8 17.7 0.00 0.00 0.00 17 1003.1
20260502013603 17 17 4.8 14.5 0.00 0.00 0.00 17 1003.1
20260502012703 18 27 6.4 14.5 0.00 0.00 0.00 17 1003.1
20260502011803 18 16 6.4 16.1 0.00 0.00 0.00 17 1003.1
20260502010903 18 7 4.8 12.9 0.00 0.00 0.00 17 1003.1
20260502010003 19 9 6.4 16.1 0.00 0.00 0.00 17 1003.1
20260502005403 19 6 3.2 12.9 0.00 0.00 0.00 16 1003.1
20260502004503 19 8 3.2 12.9 0.00 0.00 0.00 17 1003.1
20260502003603 20 32 4.8 14.5 0.00 0.00 0.00 15 1003.1
20260502002703 20 61 1.6 9.7 0.00 0.00 0.00 15 1003.1
20260502001803 20 61 1.6 8.0 0.00 0.00 0.00 15 1003.1
20260502000924 20 74 3.2 11.3 0.00 0.00 0.00 15 1003.1
20260502000003 20 98 0.0 11.3 0.00 0.00 0.00 17 1003.1